To NAV CANADA Home Page Login to a new session Search on AWWS site Feedback and Comments Disclaimer Vers la page française équivalente Tips FAQ What's new on the site To the Forecasts and Observations / NOTAM section To "File a Flight Plan" website Publications and other links Update of the User's profile FIC Telephone Numbers My Weather Data Folder Route Weather Data Regional Weather Data Local Weather Data To the Forecasts and Observations / NOTAM section
Request Generated 10/21/2016 at 00:24:01 UTC . Weather information available at that time is displayed.



LWIS CYCS 210000Z AUTO 17005KT M01/M02 A2998=
LWIS CYCS 202300Z AUTO 15003KT M02/M02 A3000=
METAR CYCS 202200Z VRB02KT 4SM -SN OVC020 M02/M03 A3001 RMK SC8
-1.4/-2.4/TR/8 MEDIUM PACK LAST STFD OBS NXT 211200Z SLP163=

CYCS - No TAF is issued for this station

Your time UTC time
Weather data provided by Environment Canada and NAV CANADA